Showing default

COSMOS 2488, 39483

Orbit data source: Space-Track

COSMOS 2488, 39483 is a payload satellite owned by VVKO (CIS) in LEO that was launched on Wed, 25 Dec 2013 UTC via an ROKOT launch vehicle from the Plesetsk Missile And Space Complex (PKMTR). Payloads include a variety of satellites, spacecraft, and rockets equipped with specific instruments for various scientific and technological missions. These include communications satellites like Starlink; space stations such as the ISS; scientific satellites like the Hubble; Earth observation satellites from companies like Planet Labs, Umbra, and HawkEye 360; GPS; miniature CubeSats for education and research; and military/defense satellites.

Loading next visibility...
COSMOS 2488 details
Identifier
39483, 2013-076A
Orbit
LEO
Last TLE update18 hours ago
Origin
Flag of CISVVKO (CIS)
ManufacturerResehetnev ISS
MissionOperational Civil Communications
Bus & MotorSTRELA-3M, Unknown motor
Mass280 kg wet, 280 kg dry
Launch date (UTC)
2013-12-25 (11 years ago)
Launch vehicle
ROKOT
Launch site
Plesetsk Missile And Space Complex (PKMTR)
Object type
Payload
Rocket body
Debris
Shape & HBRCyl + 1 Ant, 7 m
Radar Cross Section1.583 m², Large (>1 m²)

Expand to show TLE details & history

TLE from 18 hours ago
0 COSMOS 2488
1 39483U 13076A   25037.89611525  .00000018  00000-0  59633-4 0  9997
2 39483  82.4841 117.3713 0020380  96.5968 263.7433 12.42857171504369
Epoch: 2025-02-06T21:30Z
Definitive object data (Epoch: 2025-02-06T21:30:24.357Z)
Latitude0.00004°
Longitude17.50369°
Altitude1,498.995 km
Speed7.114 km/s
True Right ascension07h 49m 29s
True Declination0° 00' 00"
Sunlit
Object was in full shadow at TLE epoch
Visualization TLE readout
Latitude82.50365°
Longitude103.17563°
Altitude1,492.097 km
Speed7.132 km/s
Apparent Right ascension06h 20m 01s
Apparent Declination39° 37' 35"
Sunlit
Object is in daylight
Visualization observer readout
Local Sidereal Time17:33:54
Azimuth351.015° N
Elevation-9.764°
Doppler factor1
Orbital elements
Apogee altitude1,507.905 km
Perigee altitude1,475.827 km
Semi-major axis7,870.003 km
Eccentricity0.002038
Inclination82.4841°
RAAN117.3713°
Arg. of periapsis96.5968°
True anomaly263.51122°
Mean anomaly263.7433°
Eccentric anomaly263.62725°
Mean motion3.10871 °/min
BSTAR0.000059633
Orbital period115.8 mins
Loading maneuver chart data...
Loading historical data...
Loading historical data...
Loading historical data...
Loading historical data...
Loading historical data...
Loading historical data...
Loading historical data...

COSMOS 2488 Visibility forecast

Observer location: undefined°, undefined

Span
Click to sort rows by Start time (UTC) header in descending order
Start Az.
Max El. time (UTC)
Max El. Az.
Max El.
End time (UTC)
End Az.
13 mins2025-02-07 15:30:23.242Z15.008° NNE2025-02-07 15:37:23.242Z71.331° E23.737°2025-02-07 15:43:23.242Z118.67° SE
15 mins2025-02-07 17:27:23.242Z345.071° N2025-02-07 17:34:23.242Z272.466° WNW42.508°2025-02-07 17:42:23.242Z188.737° SSW
12 mins2025-02-08 04:32:23.242Z133.061° SE2025-02-08 04:38:23.242Z79.502° E26.677°2025-02-08 04:44:23.242Z30.698° NE
15 mins2025-02-08 06:27:23.242Z208.557° SW2025-02-08 06:34:23.242Z283.821° WNW39.786°2025-02-08 06:42:23.242Z359.221° N
6 mins2025-02-08 14:44:23.242Z41.823° NE2025-02-08 14:46:23.242Z56.37° ENE13.095°2025-02-08 14:50:23.242Z84.804° E
|